Flag for Germany Weather past 2 weeks in Koblenz, Rhineland-Palatinate, Germany

Now
28 °F

Chilly.


Feels Like: 18 °F
Forecast: 7 / 29 °F
Wind: 12 mph from Southeast

Location: Buechel

Current Time: Dec 27, 2014 at 11:58:12 AM

Latest Report: Dec 27, 2014 at 11:20 AM


Visibility: 0 mi

Pressure: 29.36 "Hg

Humidity: 100%

Dew point: 28 °F

Location of KoblenzLocation

Historic Weather in Koblenz — Graph

°F

Koblenz temperature yesterday

Maximum temperature yesterday: 36 °F (at 11:20 AM)
Minimum temperature yesterday: 30 °F (at 6:20 AM)
Average temperature yesterday: 33 °F

Past Weeks' High & Low Weather Summary

 TemperatureHumidityPressure
High50 °F (Dec 18, 12:20 PM)100% (Dec 12, 5:20 PM)30.42 "Hg (Dec 12, 5:20 PM)
Low28 °F (Dec 15, 5:20 AM)75% (Dec 25, 2:20 AM)29.39 "Hg (Dec 27, 10:20 AM)
Average38 °F94%30.02 "Hg
* Reported Dec 12 10:20 AM — Dec 27 10:20 AM, Koblenz, Weather by CustomWeather, © 2014

Note: Actual official high and low records may vary slightly from our data, if they occured in-between our weather recording intervals... More about our weather records

Advertising

Koblenz weather history for previous 24 hours

 ConditionsComfort  
Time TempWeatherWind HumidityBarometerVisibility
10:20 AM
Dec 27
28 °FChilly.12 mph100%29.39 "Hg1 mi
9:20 AM28 °FChilly.13 mph100%29.42 "Hg0 mi
8:20 AM28 °FChilly.14 mph100%29.45 "Hg0 mi
7:20 AM30 °FChilly.15 mph93%29.50 "Hg0 mi
6:20 AM30 °FChilly.16 mph93%29.56 "Hg0 mi
5:20 AM30 °FChilly.13 mph93%29.65 "Hg1 mi
4:20 AM30 °FChilly.13 mph93%29.74 "Hg1 mi
3:20 AM32 °FChilly.14 mph87%29.83 "Hg1 mi
2:20 AM32 °FChilly.12 mph87%29.89 "Hg6 mi
1:20 AM32 °FChilly.12 mph93%29.95 "Hg5 mi
12:20 AM32 °FChilly.12 mph93%30.04 "Hg4 mi
11:20 PM
Dec 26
32 °FChilly.12 mph93%30.09 "Hg4 mi
10:20 PM32 °FChilly.10 mph93%30.12 "Hg4 mi
9:20 PM32 °FChilly.8 mph93%30.18 "Hg2 mi
8:20 PM32 °FChilly.8 mph100%30.21 "Hg1 mi
7:20 PM32 °FChilly.7 mph93%30.24 "Hg1 mi
6:20 PM32 °FChilly.6 mph93%30.27 "Hg3 mi
5:20 PM34 °FChilly.6 mph93%30.27 "Hg4 mi
4:20 PM34 °FChilly.6 mph87%30.30 "Hg6 mi
3:20 PM36 °FChilly.8 mph81%30.30 "HgN/A
2:20 PM36 °FChilly.7 mph81%30.33 "HgN/A
1:20 PM36 °FChilly.6 mph87%30.33 "HgN/A
12:20 PM36 °FChilly.9 mph87%30.33 "HgN/A
11:20 AM36 °FChilly.8 mph87%30.36 "Hg6 mi
Weather by CustomWeather, © 2014

See weather overviewHow to use our weather pages